DW8751 Colwyn Bay UK current weather conditions

sailwx.info

Wind from 056 at 1 knots gusting 4

Air temperature 11.7° C
Dewpoint 11.7° C

Last reported at 2019-Sep-16 09:06 UTC.
Time now 2019-Sep-16 10:09 UTC

Location: N 53°17' W 003°44'.
View on Google Maps.

See reports from other nearby stations

  
Tides and Currents Weather Stations Pressure Air Temp Water Temp Dewpoint Dewpoint Depression Visibility Wind Speed Wind Dir Waves Ship Positions
date/time (UTC)wind fromknots sea level pressurealtimeterstation pressurevisibilityair tempwater tempwave heightnotes
2019-Sep-16 09:06 056 1 gusting 4 11.7
2019-Sep-16 09:01 111 11.7
2019-Sep-16 08:56 113 0 gusting 2 11.7
2019-Sep-16 08:51 136 11.7
2019-Sep-16 08:46 132 12.2
2019-Sep-16 08:41 132 11.7
2019-Sep-16 08:36 136 11.7
2019-Sep-16 08:31 134 11.7
2019-Sep-16 08:26 135 11.7
2019-Sep-16 08:21 133 11.7
2019-Sep-16 08:16 132 11.7
2019-Sep-16 08:11 122 0 gusting 2 11.7
2019-Sep-16 08:06 121 11.7
2019-Sep-16 08:01 122 11.7
2019-Sep-16 07:56 121 11.1
2019-Sep-16 07:51 121 11.1
2019-Sep-16 07:46 122 11.1
2019-Sep-16 07:41 120 11.1
2019-Sep-16 07:36 120 11.1
2019-Sep-16 07:31 117 11.1
2019-Sep-16 07:26 118 11.1
2019-Sep-16 07:21 114 11.1
2019-Sep-16 07:16 114 11.1
2019-Sep-16 07:11 117 11.1
2019-Sep-16 07:06 117 11.1
2019-Sep-16 07:01 118 11.1
2019-Sep-16 06:56 118 11.1
2019-Sep-16 06:51 117 11.1
2019-Sep-16 06:46 113 11.1
2019-Sep-16 06:41 118 11.1
2019-Sep-16 06:36 117 11.1
2019-Sep-16 06:31 114 11.1
2019-Sep-16 06:26 116 11.1
2019-Sep-16 06:21 116 11.1
2019-Sep-16 06:16 113 0 gusting 1 11.1
2019-Sep-16 06:11 109 0 gusting 1 11.1
2019-Sep-16 06:06 104 0 gusting 1 11.1
2019-Sep-16 06:01 113 0 gusting 2 11.1
2019-Sep-16 05:56 113 11.1
2019-Sep-16 05:51 115 11.1
2019-Sep-16 05:46 109 0 gusting 2 11.1
2019-Sep-16 05:41 113 0 gusting 2 11.1
2019-Sep-16 05:36 111 0 gusting 2 11.1
2019-Sep-16 05:31 106 0 gusting 4 11.1
2019-Sep-16 05:26 113 11.1
2019-Sep-16 05:21 112 0 gusting 2 11.1
2019-Sep-16 05:16 110 0 gusting 2 11.1
2019-Sep-16 05:11 105 0 gusting 2 11.1
2019-Sep-16 05:06 103 0 gusting 2 11.1
2019-Sep-16 05:01 112 0 gusting 2 11.1
2019-Sep-16 04:56 111 1 gusting 5 11.1
2019-Sep-16 04:51 094 0 gusting 5 11.1
2019-Sep-16 04:46 096 1 gusting 4 11.1
2019-Sep-16 04:41 101 1 gusting 6 11.7
2019-Sep-16 04:36 095 1 gusting 4 11.7
2019-Sep-16 04:31 089 2 gusting 5 11.7
2019-Sep-16 04:26 093 2 gusting 6 11.7
2019-Sep-16 04:21 092 2 gusting 6 11.7
2019-Sep-16 04:16 083 4 gusting 6 11.7
2019-Sep-16 04:11 086 4 gusting 7 11.7
2019-Sep-16 04:06 076 4 gusting 6 11.7
2019-Sep-16 04:01 081 3 gusting 7 11.7
2019-Sep-16 03:56 086 5 gusting 7 11.7
2019-Sep-16 03:51 084 5 gusting 8 11.7
2019-Sep-16 03:46 090 3 gusting 6 11.7
2019-Sep-16 03:41 092 2 gusting 7 11.7
2019-Sep-16 03:36 073 3 gusting 7 11.7
2019-Sep-16 03:31 085 4 gusting 6 11.7
2019-Sep-16 03:26 079 2 gusting 5 11.7
2019-Sep-16 03:21 092 2 gusting 4 11.7
2019-Sep-16 03:16 091 1 gusting 4 11.7
2019-Sep-16 03:11 090 1 gusting 4 12.2
2019-Sep-16 03:06 090 1 gusting 4 12.2
2019-Sep-16 03:01 097 0 gusting 2 12.2
2019-Sep-16 02:56 096 1 gusting 4 12.2
2019-Sep-16 02:51 096 0 gusting 2 11.7
2019-Sep-16 02:46 096 0 gusting 2 11.7
2019-Sep-16 02:41 103 0 gusting 2 11.7
2019-Sep-16 02:36 104 0 gusting 1 11.7
2019-Sep-16 02:31 104 0 gusting 2 12.2
2019-Sep-16 02:26 103 12.2
2019-Sep-16 02:21 104 0 gusting 2 12.2
2019-Sep-16 02:16 104 1 gusting 2 12.2
2019-Sep-16 02:11 104 0 gusting 1 12.2
2019-Sep-16 02:06 104 12.2
2019-Sep-16 02:01 103 12.2
2019-Sep-16 01:56 103 12.2
2019-Sep-16 01:51 103 0 gusting 2 12.2
2019-Sep-16 01:46 106 1 gusting 4 12.2
2019-Sep-16 01:41 091 2 gusting 6 12.2
2019-Sep-16 01:36 074 3 gusting 6 12.2
2019-Sep-16 01:31 088 2 gusting 5 12.2
2019-Sep-16 01:26 078 0 gusting 2 12.2
2019-Sep-16 01:21 078 0 gusting 2 12.2
2019-Sep-16 01:16 077 1 gusting 2 12.2
2019-Sep-16 01:11 068 1 gusting 2 12.2
2019-Sep-16 01:06 072 1 gusting 4 12.2
2019-Sep-16 01:01 093 1 gusting 4 12.2
2019-Sep-16 00:56 092 0 gusting 4 12.2
2019-Sep-16 00:51 101 1 gusting 2 12.2
2019-Sep-16 00:46 108 0 gusting 2 12.2
2019-Sep-16 00:41 101 0 gusting 2 12.2
2019-Sep-16 00:36 105 0 gusting 2 12.2
2019-Sep-16 00:31 105 0 gusting 2 12.2
2019-Sep-16 00:26 108 12.2
2019-Sep-16 00:21 107 12.2
2019-Sep-16 00:16 108 12.2
2019-Sep-16 00:11 106 0 gusting 2 12.2
2019-Sep-16 00:06 097 0 gusting 2 12.2
2019-Sep-16 00:01 108 1 gusting 2 12.2
2019-Sep-15 23:56 098 0 gusting 2 12.2
2019-Sep-15 23:51 106 0 gusting 2 12.2
2019-Sep-15 23:46 106 1 gusting 2 12.2
2019-Sep-15 23:41 104 0 gusting 2 12.2
2019-Sep-15 23:36 110 0 gusting 2 12.2
2019-Sep-15 23:31 103 0 gusting 2 12.2
2019-Sep-15 23:26 106 1 gusting 2 12.2
2019-Sep-15 23:21 108 0 gusting 2 12.2
2019-Sep-15 23:16 109 1 gusting 2 12.2
2019-Sep-15 23:11 113 0 gusting 2 12.2
2019-Sep-15 23:06 108 1 gusting 2 12.2
2019-Sep-15 23:01 120 0 gusting 2 12.2
2019-Sep-15 22:56 121 0 gusting 2 12.2
2019-Sep-15 22:51 120 0 gusting 2 12.2
2019-Sep-15 22:46 114 12.2
2019-Sep-15 22:41 109 0 gusting 1 12.2
2019-Sep-15 22:36 119 12.2
2019-Sep-15 22:31 120 12.2
2019-Sep-15 22:26 103 12.2
2019-Sep-15 22:21 117 11.7
2019-Sep-15 22:16 113 11.7
2019-Sep-15 22:11 115 11.7
2019-Sep-15 22:06 109 11.7
2019-Sep-15 22:01 118 11.7
2019-Sep-15 21:56 112 11.7
2019-Sep-15 21:51 121 11.7
2019-Sep-15 21:46 117 11.7
2019-Sep-15 21:41 123 11.7
2019-Sep-15 21:36 120 11.7
2019-Sep-15 21:31 115 11.7
2019-Sep-15 21:26 121 11.7
2019-Sep-15 21:21 117 11.7
2019-Sep-15 21:16 116 11.7
2019-Sep-15 21:11 120 11.7
2019-Sep-15 21:06 121 11.7
2019-Sep-15 21:01 111 11.7
2019-Sep-15 20:56 119 11.7
2019-Sep-15 20:51 122 11.7
2019-Sep-15 20:46 114 11.7
2019-Sep-15 20:41 112 11.7
2019-Sep-15 20:36 124 11.7
2019-Sep-15 20:31 114 11.7
2019-Sep-15 20:26 124 11.7
2019-Sep-15 20:21 116 11.7
2019-Sep-15 20:16 124 11.7
2019-Sep-15 20:11 108 1 gusting 2 11.7
2019-Sep-15 20:06 125 1 gusting 2 11.7
2019-Sep-15 20:01 110 1 gusting 2 11.7
2019-Sep-15 19:56 115 1 gusting 2 11.7
2019-Sep-15 19:51 104 11.7
2019-Sep-15 19:46 109 11.7
2019-Sep-15 19:41 109 11.7
2019-Sep-15 19:36 107 0 gusting 2 11.7
2019-Sep-15 19:31 107 0 gusting 2 11.7
2019-Sep-15 19:26 109 0 gusting 2 11.7
2019-Sep-15 19:21 101 0 gusting 4 11.7
2019-Sep-15 19:16 124 0 gusting 4 11.7
2019-Sep-15 19:11 118 1 gusting 6 11.7
2019-Sep-15 19:06 106 1 gusting 2 11.7
2019-Sep-15 19:01 123 0 gusting 2 11.7
2019-Sep-15 18:56 091 0 gusting 2 11.7
2019-Sep-15 18:51 108 0 gusting 2 11.7
2019-Sep-15 18:46 114 0 gusting 2 11.7
2019-Sep-15 18:41 109 0 gusting 2 11.7
2019-Sep-15 18:36 090 0 gusting 2 11.7
2019-Sep-15 18:31 110 1 gusting 2 11.7
2019-Sep-15 18:26 102 0 gusting 4 11.7
2019-Sep-15 18:21 099 1 gusting 4 11.7
2019-Sep-15 18:16 096 0 gusting 4 11.7
2019-Sep-15 18:11 089 0 gusting 2 11.7
2019-Sep-15 18:06 100 1 gusting 4 11.7
2019-Sep-15 18:01 095 2 gusting 4 11.7
2019-Sep-15 17:56 092 1 gusting 4 11.7
2019-Sep-15 17:51 086 1 gusting 4 11.7
2019-Sep-15 17:46 069 0 gusting 4 11.7
2019-Sep-15 17:41 067 1 gusting 4 11.7
2019-Sep-15 17:36 063 1 gusting 6 11.7
2019-Sep-15 17:31 080 1 gusting 4 11.7
2019-Sep-15 17:26 023 1 gusting 4 11.7
2019-Sep-15 17:21 070 2 gusting 6 11.7
2019-Sep-15 17:16 051 1 gusting 4 11.7
2019-Sep-15 17:11 057 0 gusting 4 11.7
2019-Sep-15 17:06 052 1 gusting 2 11.7
2019-Sep-15 17:01 059 0 gusting 2 11.7
2019-Sep-15 16:56 051 1 gusting 4 11.7
2019-Sep-15 16:51 055 1 gusting 2 11.7
2019-Sep-15 16:46 062 1 gusting 2 12.2
2019-Sep-15 16:41 057 1 gusting 2 12.2
2019-Sep-15 16:36 076 0 gusting 2 12.2
2019-Sep-15 16:31 083 0 gusting 2 12.2
2019-Sep-15 16:26 074 0 gusting 2 12.2
2019-Sep-15 16:21 078 1 gusting 4 12.2
2019-Sep-15 16:16 090 0 gusting 2 12.2
2019-Sep-15 16:11 089 0 gusting 2 12.2
2019-Sep-15 16:06 073 0 gusting 2 12.2
2019-Sep-15 16:01 075 0 gusting 2 12.2
2019-Sep-15 15:56 077 0 gusting 2 12.2
2019-Sep-15 15:51 061 0 gusting 2 12.2
2019-Sep-15 15:46 042 1 gusting 2 12.2
2019-Sep-15 15:41 030 12.2
2019-Sep-15 15:36 027 12.2
2019-Sep-15 15:31 026 12.2
2019-Sep-15 15:26 026 12.2
2019-Sep-15 15:21 026 12.2
2019-Sep-15 15:16 026 12.2
2019-Sep-15 15:11 026 12.2
2019-Sep-15 15:06 026 12.2
2019-Sep-15 15:01 026 12.2
2019-Sep-15 14:56 025 0 gusting 2 12.2
2019-Sep-15 14:51 026 0 gusting 2 12.2
2019-Sep-15 14:46 025 1 gusting 4 12.2
2019-Sep-15 14:41 015 0 gusting 2 12.8
2019-Sep-15 14:36 012 0 gusting 2 12.8
2019-Sep-15 14:31 356 0 gusting 1 12.8
2019-Sep-15 14:26 350 12.8
2019-Sep-15 14:21 351 12.2
2019-Sep-15 14:16 352 12.2
2019-Sep-15 14:11 352 12.2
2019-Sep-15 14:06 348 0 gusting 2 12.2
2019-Sep-15 14:01 350 1 gusting 5 12.8
2019-Sep-15 13:56 341 3 gusting 5 12.8
2019-Sep-15 13:51 348 1 gusting 4 12.8
2019-Sep-15 13:46 345 1 gusting 4 12.8
2019-Sep-15 13:41 345 1 gusting 4 12.8
2019-Sep-15 13:36 349 2 gusting 5 12.8
2019-Sep-15 13:31 354 0 gusting 1 12.8
2019-Sep-15 13:26 353 0 gusting 2 12.8
2019-Sep-15 13:21 353 0 gusting 4 12.8
2019-Sep-15 13:16 351 0 gusting 2 12.8
2019-Sep-15 13:11 342 0 gusting 4 12.8
2019-Sep-15 13:06 324 12.8
2019-Sep-15 13:01 329 12.8
2019-Sep-15 12:56 346 12.8
2019-Sep-15 12:51 357 13.3
2019-Sep-15 12:46 339 13.3
2019-Sep-15 12:41 336 0 gusting 1 12.8
2019-Sep-15 12:36 336 0 gusting 1 12.8
2019-Sep-15 12:31 329 12.8
2019-Sep-15 12:26 332 0 gusting 2 12.8
2019-Sep-15 12:21 320 0 gusting 2 12.8
2019-Sep-15 12:16 324 1 gusting 2 12.8
2019-Sep-15 12:11 330 1 gusting 4 12.8
2019-Sep-15 12:06 299 12.8
2019-Sep-15 12:01 311 12.8
2019-Sep-15 11:56 295 12.8
2019-Sep-15 11:51 341 2 gusting 4 12.8
2019-Sep-15 11:46 325 0 gusting 2 12.8
2019-Sep-15 11:41 345 0 gusting 2 12.8
2019-Sep-15 11:36 339 12.8
2019-Sep-15 11:31 344 1 gusting 2 12.8
2019-Sep-15 11:26 340 1 gusting 4 12.8
2019-Sep-15 11:21 331 1 gusting 2 12.8
2019-Sep-15 11:16 324 12.8
2019-Sep-15 11:11 328 12.8
2019-Sep-15 11:06 326 12.8
2019-Sep-15 11:01 341 0 gusting 2 12.8
2019-Sep-15 10:56 329 12.8
2019-Sep-15 10:51 328 12.8
2019-Sep-15 10:46 315 0 gusting 2 12.8
2019-Sep-15 10:41 332 1 gusting 2 12.8
2019-Sep-15 10:36 346 1 gusting 2 12.8
2019-Sep-15 10:31 331 1 gusting 2 12.8
2019-Sep-15 10:26 338 0 gusting 2 12.8
2019-Sep-15 10:21 341 12.2
2019-Sep-15 10:16 336 12.2
2019-Sep-15 10:11 329 12.2
2019-Sep-15 10:06 337 1 gusting 2 12.2
2019-Sep-15 10:01 330 0 gusting 2 12.2
2019-Sep-15 09:56 340 1 gusting 4 12.2
2019-Sep-15 09:51 338 2 gusting 5 12.2
2019-Sep-15 09:46 331 2 gusting 6 12.2
2019-Sep-15 09:41 326 4 gusting 6 12.2
2019-Sep-15 09:36 337 4 gusting 10 12.2
2019-Sep-15 09:31 337 5 gusting 8 12.2
2019-Sep-15 09:26 336 6 gusting 10 12.8
2019-Sep-15 09:21 342 5 gusting 7 12.8
2019-Sep-15 09:16 347 4 gusting 6 12.8
2019-Sep-15 09:11 351 3 gusting 6 12.8
2019-Sep-15 09:06 351 4 gusting 7 12.8
2019-Sep-15 09:01 348 4 gusting 6 12.8
2019-Sep-15 08:56 343 4 gusting 8 12.8
2019-Sep-15 08:51 353 5 gusting 8 12.8
2019-Sep-15 08:46 352 2 gusting 8 12.8
2019-Sep-15 08:41 349 5 gusting 8 13.3
2019-Sep-15 08:36 354 4 gusting 8 13.3
2019-Sep-15 08:31 340 5 gusting 10 13.3
2019-Sep-15 08:26 356 7 gusting 10 13.9
2019-Sep-15 08:21 328 6 gusting 11 14.4
2019-Sep-15 08:16 340 6 gusting 12 15.0
2019-Sep-15 08:11 325 6 gusting 13 15.6
2019-Sep-15 08:06 315 7 gusting 13 15.6
2019-Sep-15 08:01 310 7 gusting 12 15.6
2019-Sep-15 07:56 310 7 gusting 12 15.6
2019-Sep-15 07:51 319 8 gusting 14 15.6
2019-Sep-15 07:46 307 6 gusting 13 15.6
2019-Sep-15 07:41 287 6 gusting 13 15.6
2019-Sep-15 07:36 289 5 gusting 13 15.6
2019-Sep-15 07:31 296 8 gusting 15 15.6
2019-Sep-15 07:26 297 7 gusting 14 15.6
2019-Sep-15 07:21 283 6 gusting 12 15.6
2019-Sep-15 07:16 290 6 gusting 13 15.6
2019-Sep-15 07:11 290 7 gusting 14 15.6
2019-Sep-15 07:06 274 7 gusting 13 15.6
2019-Sep-15 07:01 321 6 gusting 12 15.6
2019-Sep-15 06:56 298 7 gusting 15 15.6
2019-Sep-15 06:51 270 10 gusting 17 15.6
2019-Sep-15 06:46 300 7 gusting 14 15.6
2019-Sep-15 06:41 323 7 gusting 19 15.6
2019-Sep-15 06:36 276 7 gusting 15 15.6
2019-Sep-15 06:31 304 6 gusting 13 15.6
2019-Sep-15 06:26 293 8 gusting 14 15.6
2019-Sep-15 06:21 298 6 gusting 13 15.6
2019-Sep-15 06:16 290 7 gusting 13 15.6
2019-Sep-15 06:11 290 6 gusting 11 15.6
2019-Sep-15 06:06 296 6 gusting 11 15.6
2019-Sep-15 06:01 274 6 gusting 14 15.6
2019-Sep-15 05:56 283 7 gusting 14 15.6
2019-Sep-15 05:51 300 8 gusting 15 16.1
2019-Sep-15 05:46 277 6 gusting 11 16.1
2019-Sep-15 05:41 291 6 gusting 11 16.1
2019-Sep-15 05:36 299 6 gusting 10 16.1
2019-Sep-15 05:31 288 6 gusting 12 16.1
2019-Sep-15 05:26 277 8 gusting 14 16.1
2019-Sep-15 05:21 293 7 gusting 13 16.1
2019-Sep-15 05:16 290 6 gusting 13 16.1
2019-Sep-15 05:11 280 6 gusting 13 16.1
2019-Sep-15 05:06 302 8 gusting 17 16.1
2019-Sep-15 05:01 330 6 gusting 13 16.7
2019-Sep-15 04:56 297 6 gusting 12 16.7
2019-Sep-15 04:51 298 6 gusting 12 16.7
2019-Sep-15 04:46 290 6 gusting 10 16.7
2019-Sep-15 04:41 298 6 gusting 10 16.7
2019-Sep-15 04:36 287 7 gusting 13 16.7
2019-Sep-15 04:31 266 6 gusting 13 16.7
2019-Sep-15 04:26 285 6 gusting 12 16.7
2019-Sep-15 04:21 262 7 gusting 13 16.7
2019-Sep-15 04:16 268 6 gusting 11 16.7
2019-Sep-15 04:11 258 7 gusting 13 16.7
2019-Sep-15 04:06 258 7 gusting 17 16.7
2019-Sep-15 04:01 277 8 gusting 15 16.7
2019-Sep-15 03:56 273 6 gusting 17 16.7
2019-Sep-15 03:51 264 8 gusting 17 16.7
2019-Sep-15 03:46 275 7 gusting 17 16.7
2019-Sep-15 03:41 270 6 gusting 17 16.7
2019-Sep-15 03:36 267 7 gusting 13 16.7
2019-Sep-15 03:31 271 8 gusting 13 16.7
2019-Sep-15 03:26 252 8 gusting 19 16.7
2019-Sep-15 03:21 264 8 gusting 17 16.7
2019-Sep-15 03:16 272 7 gusting 13 17.2
2019-Sep-15 03:11 268 7 gusting 15 17.2
2019-Sep-15 03:06 267 7 gusting 14 17.2
2019-Sep-15 03:01 269 7 gusting 18 17.2
2019-Sep-15 02:56 275 8 gusting 15 17.2
2019-Sep-15 02:51 263 8 gusting 17 17.2
2019-Sep-15 02:46 256 5 gusting 13 17.2
2019-Sep-15 02:41 258 5 gusting 10 17.2
2019-Sep-15 02:36 271 6 gusting 11 17.2
2019-Sep-15 02:31 252 6 gusting 11 17.2
2019-Sep-15 02:26 255 5 gusting 14 17.2
2019-Sep-15 02:21 244 5 gusting 10 17.2
2019-Sep-15 02:16 228 5 gusting 12 17.2
2019-Sep-15 02:11 238 7 gusting 15 17.2
2019-Sep-15 02:06 227 6 gusting 18 17.2
2019-Sep-15 02:01 234 5 gusting 11 17.2
2019-Sep-15 01:56 237 5 gusting 11 17.2
2019-Sep-15 01:51 245 6 gusting 17 17.2
2019-Sep-15 01:46 238 4 gusting 11 17.2
2019-Sep-15 01:41 247 5 gusting 12 17.2
2019-Sep-15 01:36 234 6 gusting 15 17.2
2019-Sep-15 01:31 250 8 gusting 14 17.2
2019-Sep-15 01:26 218 6 gusting 15 17.2
2019-Sep-15 01:21 226 8 gusting 19 17.2
2019-Sep-15 01:16 238 7 gusting 14 16.7
2019-Sep-15 01:11 214 6 gusting 14 16.7
2019-Sep-15 01:06 216 7 gusting 13 16.7
2019-Sep-15 01:01 232 6 gusting 11 16.7
2019-Sep-15 00:56 226 7 gusting 17 16.7
2019-Sep-15 00:51 244 4 gusting 13 16.1
2019-Sep-15 00:46 236 6 gusting 14 16.1
2019-Sep-15 00:41 233 6 gusting 13 15.6
2019-Sep-15 00:36 219 6 gusting 12 15.6
2019-Sep-15 00:31 212 5 gusting 11 15.0
2019-Sep-15 00:26 195 6 gusting 17 15.0
2019-Sep-15 00:21 283 8 gusting 14 15.0
2019-Sep-15 00:16 353 8 gusting 13 15.0
2019-Sep-15 00:11 186 9 gusting 17 15.0
2019-Sep-15 00:06 210 6 gusting 17 14.4
2019-Sep-15 00:01 230 8 gusting 17 15.0
2019-Sep-14 23:56 203 8 gusting 14 15.0
2019-Sep-14 23:51 192 8 gusting 15 15.0
2019-Sep-14 23:46 207 8 gusting 15 14.4
2019-Sep-14 23:41 210 9 gusting 17 14.4
2019-Sep-14 23:36 221 6 gusting 17 14.4
2019-Sep-14 23:31 198 10 gusting 17 15.0
2019-Sep-14 23:26 251 7 gusting 17 15.0
2019-Sep-14 23:21 210 11 gusting 18 15.0
2019-Sep-14 23:16 214 10 gusting 17 15.0
2019-Sep-14 23:11 208 11 gusting 17 15.0
2019-Sep-14 23:06 205 11 gusting 15 15.0
2019-Sep-14 23:01 209 10 gusting 17 15.0
2019-Sep-14 22:56 195 11 gusting 20 15.0
2019-Sep-14 22:51 228 7 gusting 17 14.4
2019-Sep-14 22:46 204 11 gusting 19 14.4
2019-Sep-14 22:41 204 12 gusting 19 14.4
2019-Sep-14 22:36 229 12 gusting 19 14.4
2019-Sep-14 22:31 211 11 gusting 18 14.4
2019-Sep-14 22:26 212 9 gusting 17 14.4
2019-Sep-14 22:21 194 11 gusting 19 14.4
2019-Sep-14 22:16 231 13 gusting 20 14.4
2019-Sep-14 22:11 211 9 gusting 17 14.4
2019-Sep-14 22:06 197 10 gusting 17 14.4
2019-Sep-14 22:01 218 12 gusting 17 14.4
2019-Sep-14 21:56 216 11 gusting 18 14.4
2019-Sep-14 21:51 233 12 gusting 17 14.4
2019-Sep-14 21:46 220 9 gusting 19 14.4
2019-Sep-14 21:41 237 12 gusting 18 14.4
2019-Sep-14 21:36 203 10 gusting 17 14.4
2019-Sep-14 21:31 209 10 gusting 17 14.4
2019-Sep-14 21:26 227 10 gusting 17 14.4
2019-Sep-14 21:21 207 11 gusting 17 14.4
2019-Sep-14 21:16 213 10 gusting 17 14.4
2019-Sep-14 21:11 182 10 gusting 17 14.4
2019-Sep-14 21:06 236 10 gusting 14 14.4
2019-Sep-14 21:01 185 11 gusting 17 14.4
2019-Sep-14 20:56 230 12 gusting 19 14.4
2019-Sep-14 20:51 204 12 gusting 19 14.4
2019-Sep-14 20:46 240 9 gusting 18 14.4
2019-Sep-14 20:41 201 9 gusting 17 14.4
2019-Sep-14 20:36 220 6 gusting 19 14.4
2019-Sep-14 20:31 355 10 gusting 17 14.4
2019-Sep-14 20:26 200 10 gusting 17 14.4
2019-Sep-14 20:21 232 11 gusting 17 14.4
2019-Sep-14 20:16 227 9 gusting 13 15.0
2019-Sep-14 20:11 234 8 gusting 15 15.0
2019-Sep-14 20:06 210 11 gusting 18 15.0
2019-Sep-14 20:01 207 7 gusting 14 15.0
2019-Sep-14 19:56 212 9 gusting 17 15.0
2019-Sep-14 19:51 209 11 gusting 19 15.0
2019-Sep-14 19:46 218 8 gusting 18 15.0
2019-Sep-14 19:41 206 10 gusting 19 15.0
2019-Sep-14 19:36 198 12 gusting 24 15.0
2019-Sep-14 19:31 245 11 gusting 19 15.0
2019-Sep-14 19:26 203 10 gusting 22 15.0
2019-Sep-14 19:21 206 15 gusting 21 15.6
2019-Sep-14 19:16 204 14 gusting 21 15.6
2019-Sep-14 19:11 197 14 gusting 22 15.6
2019-Sep-14 19:06 185 11 gusting 22 15.6
2019-Sep-14 19:01 334 12 gusting 18 15.6
2019-Sep-14 18:56 269 11 gusting 18 15.6
2019-Sep-14 18:51 207 10 gusting 17 15.6
2019-Sep-14 18:46 215 9 gusting 15 15.6
2019-Sep-14 18:41 212 10 gusting 19 15.6
2019-Sep-14 18:36 270 10 gusting 17 15.6
2019-Sep-14 18:31 197 11 gusting 15 15.6
2019-Sep-14 18:26 207 10 gusting 15 15.6
2019-Sep-14 18:21 211 6 gusting 11 16.1
2019-Sep-14 18:16 197 6 gusting 12 16.1
2019-Sep-14 18:11 212 6 gusting 13 16.1
2019-Sep-14 18:06 228 6 gusting 13 16.1
2019-Sep-14 18:01 251 7 gusting 14 16.1
2019-Sep-14 17:56 209 8 gusting 15 16.1
2019-Sep-14 17:51 284 8 gusting 13 16.1
2019-Sep-14 17:46 217 9 gusting 17 16.1
2019-Sep-14 17:41 195 7 gusting 13 16.1
2019-Sep-14 17:36 193 6 gusting 13 16.1
2019-Sep-14 17:31 226 6 gusting 13 16.7
2019-Sep-14 17:26 325 8 gusting 13 16.7
2019-Sep-14 17:21 210 7 gusting 14 16.7
2019-Sep-14 17:16 237 6 gusting 15 16.7
2019-Sep-14 17:11 194 11 gusting 17 16.7
2019-Sep-14 17:06 200 11 gusting 19 17.2
2019-Sep-14 17:01 265 11 gusting 15 17.2
2019-Sep-14 16:56 194 10 gusting 15 17.2
2019-Sep-14 16:51 232 9 gusting 15 17.2
2019-Sep-14 16:46 202 8 gusting 13 17.8
2019-Sep-14 16:41 216 8 gusting 14 17.8
2019-Sep-14 16:36 196 7 gusting 14 17.8
2019-Sep-14 16:31 230 9 gusting 15 17.8
2019-Sep-14 16:26 205 7 gusting 15 17.8
2019-Sep-14 16:21 223 6 gusting 14 17.8
2019-Sep-14 16:16 208 6 gusting 12 17.8
2019-Sep-14 16:11 206 6 gusting 17 17.8
2019-Sep-14 16:06 205 9 gusting 17 17.8
2019-Sep-14 16:01 183 9 gusting 19 17.8
2019-Sep-14 15:56 170 9 gusting 15 17.8
2019-Sep-14 15:51 206 10 gusting 14 18.3
2019-Sep-14 15:46 189 9 gusting 15 18.3
2019-Sep-14 15:41 211 8 gusting 14 18.3
2019-Sep-14 15:36 183 8 gusting 12 18.3
2019-Sep-14 15:31 270 8 gusting 13 18.3
2019-Sep-14 15:26 248 6 gusting 15 18.3
2019-Sep-14 15:21 195 6 gusting 13 18.9
2019-Sep-14 15:16 171 6 gusting 13 18.9
2019-Sep-14 15:11 172 6 gusting 13 18.9
2019-Sep-14 15:06 155 5 gusting 11 19.4
2019-Sep-14 15:01 201 5 gusting 12 19.4
2019-Sep-14 14:56 207 5 gusting 13 19.4
2019-Sep-14 14:51 206 6 gusting 12 19.4
2019-Sep-14 14:46 192 6 gusting 11 19.4
2019-Sep-14 14:41 205 6 gusting 12 19.4
2019-Sep-14 14:36 253 5 gusting 11 19.4
2019-Sep-14 14:31 357 6 gusting 13 19.4
2019-Sep-14 14:26 242 5 gusting 13 19.4
2019-Sep-14 14:21 205 6 gusting 12 19.4
2019-Sep-14 14:16 237 5 gusting 10 19.4
2019-Sep-14 14:11 209 5 gusting 10 19.4
2019-Sep-14 14:06 225 6 gusting 13 19.4
2019-Sep-14 14:01 182 8 gusting 13 19.4
2019-Sep-14 13:56 223 6 gusting 15 19.4
2019-Sep-14 13:51 197 4 gusting 8 19.4
2019-Sep-14 13:46 213 7 gusting 13 19.4
2019-Sep-14 13:41 225 7 gusting 14 19.4
2019-Sep-14 13:36 196 6 gusting 14 19.4
2019-Sep-14 13:31 203 7 gusting 14 18.9
2019-Sep-14 13:26 209 7 gusting 13 18.9
2019-Sep-14 13:21 194 8 gusting 17 18.9
2019-Sep-14 13:16 309 7 gusting 14 18.9
2019-Sep-14 13:11 198 6 gusting 10 18.3
2019-Sep-14 13:06 265 6 gusting 11 18.3
2019-Sep-14 13:01 270 6 gusting 12 18.3
2019-Sep-14 12:56 289 6 gusting 13 18.3
2019-Sep-14 12:51 194 7 gusting 12 18.3
2019-Sep-14 12:46 210 6 gusting 12 18.3
2019-Sep-14 12:41 196 6 gusting 15 18.9
2019-Sep-14 12:36 194 7 gusting 13 18.9
2019-Sep-14 12:31 293 6 gusting 11 18.9
2019-Sep-14 12:26 210 5 gusting 10 18.9
2019-Sep-14 12:21 218 5 gusting 12 18.9
2019-Sep-14 12:16 175 4 gusting 11 18.9
2019-Sep-14 12:11 162 4 gusting 10 18.9
2019-Sep-14 12:06 210 6 gusting 10 18.3
2019-Sep-14 12:01 199 3 gusting 10 18.3
2019-Sep-14 11:56 190 6 gusting 13 18.3
2019-Sep-14 11:51 178 7 gusting 13 18.9
2019-Sep-14 11:46 172 5 gusting 8 18.9
2019-Sep-14 11:41 201 8 gusting 14 18.9
2019-Sep-14 11:36 210 5 gusting 10 18.9
2019-Sep-14 11:31 236 7 gusting 11 18.9
2019-Sep-14 11:26 210 7 gusting 13 18.9
2019-Sep-14 11:21 236 6 gusting 14 18.9
2019-Sep-14 11:16 212 6 gusting 13 18.9
2019-Sep-14 11:11 213 6 gusting 18 19.4
2019-Sep-14 11:06 244 7 gusting 17 19.4
2019-Sep-14 11:01 314 6 gusting 11 19.4
2019-Sep-14 10:56 214 2 gusting 12 19.4
2019-Sep-14 10:51 167 6 gusting 12 19.4
2019-Sep-14 10:46 192 6 gusting 11 19.4
2019-Sep-14 10:41 215 6 gusting 13 19.4
2019-Sep-14 10:36 217 5 gusting 8 19.4
2019-Sep-14 10:31 272 5 gusting 10 19.4
2019-Sep-14 10:26 251 6 gusting 11 19.4
2019-Sep-14 10:21 193 5 gusting 8 19.4
2019-Sep-14 10:16 215 6 gusting 10 19.4
2019-Sep-14 10:11 211 5 gusting 10 19.4
2019-Sep-14 10:06 206 5 gusting 10 18.9
2019-Sep-14 10:01 211 5 gusting 10 18.9